Time,TemperatureF,DewpointF,PressureIn,WindDirection,WindDirectionDegrees,WindSpeedMPH,WindSpeedGustMPH,Humidity,HourlyPrecipIn,Conditions,Clouds,dailyrainin,SoftwareType,DateUTC
2015-01-29 00:02:00,51.6,37.3,29.74,South,184,5.0,13.0,58,0.00,,,0.00,Wunderground v.1.15,2015-01-29 06:02:00,
2015-01-29 00:07:00,51.7,37.4,29.74,SSW,198,10.0,13.0,58,0.00,,,0.00,Wunderground v.1.15,2015-01-29 06:07:00,
2015-01-29 00:12:00,51.9,37.6,29.73,SSW,193,8.0,8.0,58,0.00,,,0.00,Wunderground v.1.15,2015-01-29 06:12:00,
2015-01-29 00:18:00,52.0,37.7,29.73,SSW,195,10.0,11.0,58,0.00,,,0.00,Wunderground v.1.15,2015-01-29 06:18:00,
2015-01-29 00:23:00,52.0,37.7,29.73,South,188,5.0,10.0,58,0.00,,,0.00,Wunderground v.1.15,2015-01-29 06:23:00,
2015-01-29 00:28:00,52.2,37.9,29.72,South,184,15.0,15.0,58,0.00,,,0.00,Wunderground v.1.15,2015-01-29 06:28:00,
2015-01-29 00:33:00,52.3,38.0,29.72,South,171,6.0,9.0,58,0.00,,,0.00,Wunderground v.1.15,2015-01-29 06:33:00,
2015-01-29 00:38:00,52.3,38.0,29.72,South,181,4.0,12.0,58,0.00,,,0.00,Wunderground v.1.15,2015-01-29 06:38:00,
2015-01-29 00:44:00,52.2,37.9,29.71,South,174,4.0,10.0,58,0.00,,,0.00,Wunderground v.1.15,2015-01-29 06:44:00,
2015-01-29 00:49:00,52.2,38.3,29.71,SSW,198,12.0,12.0,59,0.00,,,0.00,Wunderground v.1.15,2015-01-29 06:49:00,
2015-01-29 00:54:00,52.2,38.3,29.71,SW,214,10.0,11.0,59,0.00,,,0.00,Wunderground v.1.15,2015-01-29 06:54:00,
2015-01-29 00:59:00,52.2,38.3,29.70,SSW,192,9.0,11.0,59,0.00,,,0.00,Wunderground v.1.15,2015-01-29 06:59:00,
2015-01-29 01:05:00,52.2,38.3,29.70,SSW,194,11.0,13.0,59,0.00,,,0.00,Wunderground v.1.15,2015-01-29 07:05:00,
2015-01-29 01:10:00,52.2,38.3,29.69,SSW,201,5.0,8.0,59,0.00,,,0.00,Wunderground v.1.15,2015-01-29 07:10:00,
2015-01-29 01:15:00,52.2,38.3,29.69,SW,227,5.0,9.0,59,0.00,,,0.00,Wunderground v.1.15,2015-01-29 07:15:00,
2015-01-29 01:20:00,52.2,38.7,29.69,SSW,201,4.0,7.0,60,0.00,,,0.00,Wunderground v.1.15,2015-01-29 07:20:00,
2015-01-29 01:26:00,52.2,38.7,29.69,South,182,4.0,7.0,60,0.00,,,0.00,Wunderground v.1.15,2015-01-29 07:26:00,
2015-01-29 01:31:00,52.3,38.8,29.69,SSW,199,4.0,6.0,60,0.00,,,0.00,Wunderground v.1.15,2015-01-29 07:31:00,
2015-01-29 01:36:00,52.3,38.8,29.69,SSW,206,3.0,11.0,60,0.00,,,0.00,Wunderground v.1.15,2015-01-29 07:36:00,
2015-01-29 01:41:00,52.3,38.8,29.70,SW,217,3.0,6.0,60,0.00,,,0.00,Wunderground v.1.15,2015-01-29 07:41:00,
2015-01-29 01:47:00,52.3,38.8,29.70,SSW,196,2.0,7.0,60,0.00,,,0.00,Wunderground v.1.15,2015-01-29 07:47:00,
2015-01-29 01:52:00,52.3,38.8,29.70,SSW,207,3.0,5.0,60,0.00,,,0.00,Wunderground v.1.15,2015-01-29 07:52:00,
2015-01-29 01:57:00,52.3,38.8,29.70,SSW,195,4.0,9.0,60,0.00,,,0.00,Wunderground v.1.15,2015-01-29 07:57:00,
2015-01-29 02:02:00,52.3,38.8,29.70,SSW,200,0.0,9.0,60,0.00,,,0.00,Wunderground v.1.15,2015-01-29 08:02:00,
2015-01-29 02:07:00,52.3,38.8,29.70,SW,225,2.0,10.0,60,0.00,,,0.00,Wunderground v.1.15,2015-01-29 08:07:00,
2015-01-29 02:12:00,52.3,39.2,29.70,SSW,198,5.0,10.0,61,0.00,,,0.00,Wunderground v.1.15,2015-01-29 08:12:00,
2015-01-29 02:17:00,52.2,39.1,29.70,South,177,2.0,10.0,61,0.00,,,0.00,Wunderground v.1.15,2015-01-29 08:17:00,
2015-01-29 02:22:00,52.2,39.1,29.70,SSW,197,1.0,10.0,61,0.00,,,0.00,Wunderground v.1.15,2015-01-29 08:22:00,
2015-01-29 02:27:00,52.2,39.1,29.70,SSW,194,5.0,11.0,61,0.00,,,0.00,Wunderground v.1.15,2015-01-29 08:27:00,
2015-01-29 02:32:00,52.2,39.1,29.70,WSW,241,6.0,6.0,61,0.00,,,0.00,Wunderground v.1.15,2015-01-29 08:32:00,
2015-01-29 02:37:00,52.0,39.0,29.70,SW,220,3.0,9.0,61,0.00,,,0.00,Wunderground v.1.15,2015-01-29 08:37:00,
2015-01-29 02:42:00,52.0,39.4,29.69,SSW,195,5.0,10.0,62,0.00,,,0.00,Wunderground v.1.15,2015-01-29 08:42:00,
2015-01-29 02:47:00,51.9,39.3,29.69,SW,234,1.0,10.0,62,0.00,,,0.00,Wunderground v.1.15,2015-01-29 08:47:00,
2015-01-29 02:52:00,51.9,39.3,29.69,SSW,203,6.0,6.0,62,0.00,,,0.00,Wunderground v.1.15,2015-01-29 08:52:00,
2015-01-29 02:57:00,51.9,39.3,29.69,WSW,238,2.0,10.0,62,0.00,,,0.00,Wunderground v.1.15,2015-01-29 08:57:00,
2015-01-29 03:02:00,51.9,39.3,29.69,WSW,240,0.0,10.0,62,0.00,,,0.00,Wunderground v.1.15,2015-01-29 09:02:00,
2015-01-29 03:07:00,51.9,39.3,29.69,SW,221,4.0,10.0,62,0.00,,,0.00,Wunderground v.1.15,2015-01-29 09:07:00,
2015-01-29 03:12:00,51.9,39.3,29.70,West,260,0.0,9.0,62,0.00,,,0.00,Wunderground v.1.15,2015-01-29 09:12:00,
2015-01-29 03:17:00,51.9,39.3,29.70,SSW,203,0.0,9.0,62,0.00,,,0.00,Wunderground v.1.15,2015-01-29 09:17:00,
2015-01-29 03:22:00,51.9,39.7,29.70,SSW,206,3.0,6.0,63,0.00,,,0.00,Wunderground v.1.15,2015-01-29 09:22:00,
2015-01-29 03:28:00,51.9,39.7,29.71,SW,217,2.0,9.0,63,0.00,,,0.00,Wunderground v.1.15,2015-01-29 09:28:00,
2015-01-29 03:33:00,51.9,39.7,29.71,SW,217,2.0,10.0,63,0.00,,,0.00,Wunderground v.1.15,2015-01-29 09:33:00,
2015-01-29 03:38:00,52.0,39.8,29.71,SSW,213,1.0,10.0,63,0.00,,,0.00,Wunderground v.1.15,2015-01-29 09:38:00,
2015-01-29 03:43:00,52.0,39.8,29.70,West,266,2.0,6.0,63,0.00,,,0.00,Wunderground v.1.15,2015-01-29 09:43:00,
2015-01-29 03:48:00,52.0,39.8,29.70,WSW,252,1.0,6.0,63,0.00,,,0.00,Wunderground v.1.15,2015-01-29 09:48:00,
2015-01-29 03:53:00,52.0,39.8,29.70,WSW,238,6.0,7.0,63,0.00,,,0.00,Wunderground v.1.15,2015-01-29 09:53:00,
2015-01-29 03:58:00,52.0,39.8,29.71,SSW,203,3.0,9.0,63,0.00,,,0.00,Wunderground v.1.15,2015-01-29 09:58:00,
2015-01-29 04:03:00,52.2,40.0,29.71,West,274,3.0,6.0,63,0.00,,,0.00,Wunderground v.1.15,2015-01-29 10:03:00,
2015-01-29 04:08:00,52.3,40.1,29.71,WNW,292,4.0,6.0,63,0.00,,,0.00,Wunderground v.1.15,2015-01-29 10:08:00,
2015-01-29 04:13:00,52.3,39.7,29.71,WSW,253,2.0,5.0,62,0.00,,,0.00,Wunderground v.1.15,2015-01-29 10:13:00,
2015-01-29 04:18:00,52.3,39.7,29.71,West,259,3.0,6.0,62,0.00,,,0.00,Wunderground v.1.15,2015-01-29 10:18:00,
2015-01-29 04:23:00,52.2,39.6,29.71,WSW,248,1.0,7.0,62,0.00,,,0.00,Wunderground v.1.15,2015-01-29 10:23:00,
2015-01-29 04:28:00,52.3,39.7,29.72,WNW,285,8.0,13.0,62,0.00,,,0.00,Wunderground v.1.15,2015-01-29 10:28:00,
2015-01-29 04:33:00,52.3,39.7,29.72,NW,313,6.0,9.0,62,0.00,,,0.00,Wunderground v.1.15,2015-01-29 10:33:00,
2015-01-29 04:38:00,52.3,39.7,29.72,WNW,285,3.0,10.0,62,0.00,,,0.00,Wunderground v.1.15,2015-01-29 10:38:00,
2015-01-29 04:43:00,52.3,39.7,29.73,WNW,284,15.0,15.0,62,0.00,,,0.00,Wunderground v.1.15,2015-01-29 10:43:00,
2015-01-29 04:48:00,52.3,39.2,29.73,NW,311,10.0,15.0,61,0.00,,,0.00,Wunderground v.1.15,2015-01-29 10:48:00,
2015-01-29 04:53:00,52.3,39.2,29.73,WNW,290,4.0,10.0,61,0.00,,,0.00,Wunderground v.1.15,2015-01-29 10:53:00,
2015-01-29 04:58:00,52.3,39.2,29.76,NW,307,3.0,13.0,61,0.00,,,0.00,Wunderground v.1.15,2015-01-29 10:58:00,
2015-01-29 05:03:00,52.2,39.1,29.76,WNW,298,8.0,14.0,61,0.00,,,0.00,Wunderground v.1.15,2015-01-29 11:03:00,
2015-01-29 05:08:00,52.0,38.5,29.76,West,259,11.0,19.0,60,0.00,,,0.00,Wunderground v.1.15,2015-01-29 11:08:00,
2015-01-29 05:13:00,51.7,37.8,29.77,WNW,288,6.0,18.0,59,0.00,,,0.00,Wunderground v.1.15,2015-01-29 11:13:00,
2015-01-29 05:18:00,51.3,37.4,29.77,NW,306,4.0,19.0,59,0.00,,,0.00,Wunderground v.1.15,2015-01-29 11:18:00,
2015-01-29 05:23:00,50.8,37.0,29.77,WNW,290,12.0,19.0,59,0.00,,,0.00,Wunderground v.1.15,2015-01-29 11:23:00,
2015-01-29 05:28:00,50.4,37.0,29.79,NW,319,12.0,19.0,60,0.00,,,0.00,Wunderground v.1.15,2015-01-29 11:28:00,
2015-01-29 05:33:00,49.9,37.0,29.79,WNW,286,3.0,17.0,61,0.00,,,0.00,Wunderground v.1.15,2015-01-29 11:33:00,
2015-01-29 05:38:00,49.5,37.0,29.79,NNW,331,12.0,19.0,62,0.00,,,0.00,Wunderground v.1.15,2015-01-29 11:38:00,
2015-01-29 05:43:00,48.9,36.4,29.81,NW,304,7.0,23.0,62,0.00,,,0.00,Wunderground v.1.15,2015-01-29 11:43:00,
2015-01-29 05:48:00,48.5,36.5,29.81,WNW,285,15.0,23.0,63,0.00,,,0.00,Wunderground v.1.15,2015-01-29 11:48:00,
2015-01-29 05:53:00,48.0,36.4,29.81,NW,321,17.0,21.0,64,0.00,,,0.00,Wunderground v.1.15,2015-01-29 11:53:00,
2015-01-29 05:58:00,47.6,36.0,29.83,WNW,289,10.0,21.0,64,0.00,,,0.00,Wunderground v.1.15,2015-01-29 11:58:00,
2015-01-29 06:03:00,47.3,36.1,29.83,WNW,284,9.0,19.0,65,0.00,,,0.00,Wunderground v.1.15,2015-01-29 12:03:00,
2015-01-29 06:08:00,47.0,35.8,29.83,NW,304,9.0,22.0,65,0.00,,,0.00,Wunderground v.1.15,2015-01-29 12:08:00,
2015-01-29 06:13:00,46.5,35.7,29.84,WNW,297,9.0,19.0,66,0.00,,,0.00,Wunderground v.1.15,2015-01-29 12:13:00,
2015-01-29 06:19:00,46.2,35.5,29.84,WNW,292,11.0,21.0,66,0.00,,,0.00,Wunderground v.1.15,2015-01-29 12:19:00,
2015-01-29 06:24:00,45.8,35.5,29.84,West,265,9.0,22.0,67,0.00,,,0.00,Wunderground v.1.15,2015-01-29 12:24:00,
2015-01-29 06:29:00,45.5,35.5,29.86,NW,304,10.0,22.0,68,0.00,,,0.00,Wunderground v.1.15,2015-01-29 12:29:00,
2015-01-29 06:34:00,45.2,35.3,29.86,WNW,292,6.0,19.0,68,0.00,,,0.00,Wunderground v.1.15,2015-01-29 12:34:00,
2015-01-29 06:39:00,44.9,35.0,29.86,NNW,335,11.0,19.0,68,0.00,,,0.00,Wunderground v.1.15,2015-01-29 12:39:00,
2015-01-29 06:44:00,44.5,34.6,29.88,WNW,282,9.0,27.0,68,0.00,,,0.00,Wunderground v.1.15,2015-01-29 12:44:00,
2015-01-29 06:49:00,44.2,34.3,29.88,WNW,284,5.0,27.0,68,0.00,,,0.00,Wunderground v.1.15,2015-01-29 12:49:00,
2015-01-29 06:54:00,43.5,33.6,29.88,WNW,294,9.0,21.0,68,0.00,,,0.00,Wunderground v.1.15,2015-01-29 12:54:00,
2015-01-29 06:59:00,42.9,33.1,29.92,NW,310,10.0,21.0,68,0.00,,,0.00,Wunderground v.1.15,2015-01-29 12:59:00,
2015-01-29 07:04:00,42.2,32.8,29.92,WNW,300,10.0,24.0,69,0.00,,,0.00,Wunderground v.1.15,2015-01-29 13:04:00,
2015-01-29 07:09:00,41.8,32.4,29.92,WNW,293,4.0,24.0,69,0.00,,,0.00,Wunderground v.1.15,2015-01-29 13:09:00,
2015-01-29 07:14:00,41.3,31.9,29.92,WNW,300,18.0,24.0,69,0.00,,,0.00,Wunderground v.1.15,2015-01-29 13:14:00,
2015-01-29 07:19:00,41.2,31.8,29.92,NW,310,13.0,24.0,69,0.00,,,0.00,Wunderground v.1.15,2015-01-29 13:19:00,
2015-01-29 07:24:00,41.1,31.7,29.92,WNW,303,12.0,20.0,69,0.00,,,0.00,Wunderground v.1.15,2015-01-29 13:24:00,
2015-01-29 07:29:00,40.9,31.5,29.94,NW,307,8.0,23.0,69,0.00,,,0.00,Wunderground v.1.15,2015-01-29 13:29:00,
2015-01-29 07:34:00,40.6,31.2,29.94,NW,316,14.0,20.0,69,0.00,,,0.00,Wunderground v.1.15,2015-01-29 13:34:00,
2015-01-29 07:39:00,40.5,31.1,29.94,NW,319,6.0,26.0,69,0.00,,,0.00,Wunderground v.1.15,2015-01-29 13:39:00,
2015-01-29 07:44:00,40.3,30.9,29.95,NNW,330,20.0,23.0,69,0.00,,,0.00,Wunderground v.1.15,2015-01-29 13:44:00,
2015-01-29 07:49:00,40.2,30.8,29.95,WNW,301,3.0,23.0,69,0.00,,,0.00,Wunderground v.1.15,2015-01-29 13:49:00,
2015-01-29 07:54:00,40.1,30.7,29.95,NW,304,8.0,17.0,69,0.00,,,0.00,Wunderground v.1.15,2015-01-29 13:54:00,
2015-01-29 07:59:00,40.1,30.7,29.96,WNW,293,5.0,17.0,69,0.00,,,0.00,Wunderground v.1.15,2015-01-29 13:59:00,
2015-01-29 08:04:00,40.1,31.1,29.96,NNW,347,15.0,25.0,70,0.00,,,0.00,Wunderground v.1.15,2015-01-29 14:04:00,
2015-01-29 08:09:00,39.9,30.9,29.96,NW,311,11.0,28.0,70,0.00,,,0.00,Wunderground v.1.15,2015-01-29 14:09:00,
2015-01-29 08:14:00,39.9,31.3,29.97,NNW,336,7.0,21.0,71,0.00,,,0.00,Wunderground v.1.15,2015-01-29 14:14:00,
2015-01-29 08:19:00,39.8,31.2,29.97,NW,324,14.0,21.0,71,0.00,,,0.00,Wunderground v.1.15,2015-01-29 14:19:00,
2015-01-29 08:24:00,39.8,31.2,29.97,WNW,292,18.0,18.0,71,0.00,,,0.00,Wunderground v.1.15,2015-01-29 14:24:00,
2015-01-29 08:29:00,39.6,31.0,29.99,NW,308,10.0,19.0,71,0.00,,,0.00,Wunderground v.1.15,2015-01-29 14:29:00,
2015-01-29 08:34:00,39.6,31.0,29.99,WNW,288,6.0,21.0,71,0.00,,,0.00,Wunderground v.1.15,2015-01-29 14:34:00,
2015-01-29 08:39:00,39.6,31.3,29.99,WNW,298,13.0,13.0,72,0.00,,,0.00,Wunderground v.1.15,2015-01-29 14:39:00,
2015-01-29 08:44:00,39.5,30.9,30.00,WSW,256,7.0,20.0,71,0.00,,,0.00,Wunderground v.1.15,2015-01-29 14:44:00,
2015-01-29 08:49:00,39.5,30.9,30.00,West,272,5.0,10.0,71,0.00,,,0.00,Wunderground v.1.15,2015-01-29 14:49:00,
2015-01-29 08:54:00,39.3,30.7,30.00,WNW,295,4.0,17.0,71,0.00,,,0.00,Wunderground v.1.15,2015-01-29 14:54:00,
2015-01-29 08:59:00,39.3,30.3,30.00,WNW,282,6.0,11.0,70,0.00,,,0.00,Wunderground v.1.15,2015-01-29 14:59:00,
2015-01-29 09:04:00,39.3,30.3,30.00,WNW,303,15.0,18.0,70,0.00,,,0.00,Wunderground v.1.15,2015-01-29 15:04:00,
2015-01-29 09:09:00,39.2,29.9,30.02,WNW,293,15.0,15.0,69,0.00,,,0.00,Wunderground v.1.15,2015-01-29 15:09:00,
2015-01-29 09:14:00,39.2,29.9,30.02,WNW,290,16.0,20.0,69,0.00,,,0.00,Wunderground v.1.15,2015-01-29 15:14:00,
2015-01-29 09:19:00,39.1,29.8,30.02,NW,325,10.0,11.0,69,0.00,,,0.00,Wunderground v.1.15,2015-01-29 15:19:00,
2015-01-29 09:25:00,39.1,29.8,30.03,East,83,6.0,14.0,69,0.00,,,0.00,Wunderground v.1.15,2015-01-29 15:25:00,
2015-01-29 09:30:00,39.1,30.1,30.03,NNW,328,19.0,19.0,70,0.00,,,0.00,Wunderground v.1.15,2015-01-29 15:30:00,
2015-01-29 09:35:00,39.1,30.1,30.03,NW,306,12.0,22.0,70,0.00,,,0.00,Wunderground v.1.15,2015-01-29 15:35:00,
2015-01-29 09:40:00,39.1,30.1,30.03,WNW,292,17.0,19.0,70,0.00,,,0.00,Wunderground v.1.15,2015-01-29 15:40:00,
2015-01-29 09:45:00,39.1,30.1,30.03,West,281,15.0,21.0,70,0.00,,,0.00,Wunderground v.1.15,2015-01-29 15:45:00,
2015-01-29 09:50:00,39.1,30.1,30.03,NNW,334,9.0,9.0,70,0.00,,,0.00,Wunderground v.1.15,2015-01-29 15:50:00,
2015-01-29 09:55:00,39.1,30.1,30.05,WNW,295,3.0,25.0,70,0.00,,,0.00,Wunderground v.1.15,2015-01-29 15:55:00,
2015-01-29 10:00:00,39.1,30.1,30.05,NW,316,18.0,18.0,70,0.00,,,0.00,Wunderground v.1.15,2015-01-29 16:00:00,
2015-01-29 10:05:00,39.1,30.5,30.05,NW,306,17.0,21.0,71,0.00,,,0.00,Wunderground v.1.15,2015-01-29 16:05:00,
2015-01-29 10:10:00,39.1,30.5,30.06,West,274,9.0,10.0,71,0.00,,,0.00,Wunderground v.1.15,2015-01-29 16:10:00,
2015-01-29 10:15:00,39.1,30.5,30.06,NW,325,4.0,18.0,71,0.00,,,0.00,Wunderground v.1.15,2015-01-29 16:15:00,
2015-01-29 10:20:00,39.1,30.5,30.06,WNW,303,3.0,8.0,71,0.00,,,0.00,Wunderground v.1.15,2015-01-29 16:20:00,
2015-01-29 10:25:00,39.1,30.1,30.07,NW,305,7.0,17.0,70,0.00,,,0.00,Wunderground v.1.15,2015-01-29 16:25:00,
2015-01-29 10:30:00,39.2,30.6,30.07,NW,304,3.0,6.0,71,0.00,,,0.00,Wunderground v.1.15,2015-01-29 16:30:00,
2015-01-29 10:35:00,39.2,30.2,30.07,NW,311,13.0,15.0,70,0.00,,,0.00,Wunderground v.1.15,2015-01-29 16:35:00,
2015-01-29 10:40:00,39.2,30.2,30.07,NW,304,11.0,16.0,70,0.00,,,0.00,Wunderground v.1.15,2015-01-29 16:40:00,
2015-01-29 10:45:00,39.1,29.8,30.07,NW,322,9.0,23.0,69,0.00,,,0.00,Wunderground v.1.15,2015-01-29 16:45:00,
2015-01-29 10:50:00,39.1,29.8,30.07,WNW,290,3.0,10.0,69,0.00,,,0.00,Wunderground v.1.15,2015-01-29 16:50:00,
2015-01-29 10:55:00,39.2,29.9,30.08,NW,315,9.0,13.0,69,0.00,,,0.00,Wunderground v.1.15,2015-01-29 16:55:00,
2015-01-29 11:00:00,39.1,29.4,30.08,NW,307,4.0,10.0,68,0.00,,,0.00,Wunderground v.1.15,2015-01-29 17:00:00,
2015-01-29 11:05:00,39.2,29.2,30.08,NW,313,9.0,14.0,67,0.00,,,0.00,Wunderground v.1.15,2015-01-29 17:05:00,
2015-01-29 11:10:00,39.3,28.9,30.08,WNW,286,3.0,10.0,66,0.00,,,0.00,Wunderground v.1.15,2015-01-29 17:10:00,
2015-01-29 11:15:00,39.6,28.8,30.08,WNW,284,7.0,18.0,65,0.00,,,0.00,Wunderground v.1.15,2015-01-29 17:15:00,
2015-01-29 11:20:00,39.8,29.0,30.08,WNW,296,7.0,10.0,65,0.00,,,0.00,Wunderground v.1.15,2015-01-29 17:20:00,
2015-01-29 11:25:00,39.9,29.1,30.09,WNW,293,14.0,14.0,65,0.00,,,0.00,Wunderground v.1.15,2015-01-29 17:25:00,
2015-01-29 11:30:00,40.1,28.9,30.09,NNW,328,14.0,14.0,64,0.00,,,0.00,Wunderground v.1.15,2015-01-29 17:30:00,
2015-01-29 11:35:00,40.1,28.9,30.09,NW,306,6.0,25.0,64,0.00,,,0.00,Wunderground v.1.15,2015-01-29 17:35:00,
2015-01-29 11:40:00,40.2,29.0,30.09,NW,312,7.0,13.0,64,0.00,,,0.00,Wunderground v.1.15,2015-01-29 17:40:00,
2015-01-29 11:45:00,40.2,29.0,30.09,NW,312,14.0,21.0,64,0.00,,,0.00,Wunderground v.1.15,2015-01-29 17:45:00,
2015-01-29 11:50:00,40.3,28.7,30.09,West,271,12.0,14.0,63,0.00,,,0.00,Wunderground v.1.15,2015-01-29 17:50:00,
2015-01-29 11:54:00,40.5,28.9,30.09,WNW,292,7.0,18.0,63,0.00,,,0.00,Wunderground v.1.15,2015-01-29 17:54:00,
2015-01-29 11:59:00,40.5,28.9,30.09,West,275,11.0,18.0,63,0.00,,,0.00,Wunderground v.1.15,2015-01-29 17:59:00,
2015-01-29 12:03:00,40.6,29.0,30.09,West,271,14.0,17.0,63,0.00,,,0.00,Wunderground v.1.15,2015-01-29 18:03:00,
2015-01-29 12:04:00,40.6,29.0,30.09,NW,311,7.0,19.0,63,0.00,,,0.00,Wunderground v.1.15,2015-01-29 18:04:00,
2015-01-29 12:09:00,40.9,29.3,30.09,WNW,283,7.0,19.0,63,0.00,,,0.00,Wunderground v.1.15,2015-01-29 18:09:00,
2015-01-29 12:14:00,40.9,28.9,30.09,WNW,288,14.0,15.0,62,0.00,,,0.00,Wunderground v.1.15,2015-01-29 18:14:00,
2015-01-29 12:19:00,40.9,28.9,30.09,NNW,348,9.0,19.0,62,0.00,,,0.00,Wunderground v.1.15,2015-01-29 18:19:00,
2015-01-29 12:24:00,40.8,29.2,30.09,NW,321,11.0,18.0,63,0.00,,,0.00,Wunderground v.1.15,2015-01-29 18:24:00,
2015-01-29 12:29:00,40.6,29.0,30.09,NW,323,5.0,18.0,63,0.00,,,0.00,Wunderground v.1.15,2015-01-29 18:29:00,
2015-01-29 12:34:00,40.5,29.3,30.09,NW,309,7.0,15.0,64,0.00,,,0.00,Wunderground v.1.15,2015-01-29 18:34:00,
2015-01-29 12:39:00,40.5,29.3,30.09,WNW,299,10.0,22.0,64,0.00,,,0.00,Wunderground v.1.15,2015-01-29 18:39:00,
2015-01-29 12:44:00,40.3,29.1,30.09,NNW,327,12.0,20.0,64,0.00,,,0.00,Wunderground v.1.15,2015-01-29 18:44:00,
2015-01-29 12:49:00,40.3,29.1,30.09,WNW,296,5.0,24.0,64,0.00,,,0.00,Wunderground v.1.15,2015-01-29 18:49:00,
2015-01-29 12:54:00,40.3,29.1,30.09,WNW,298,2.0,14.0,64,0.00,,,0.00,Wunderground v.1.15,2015-01-29 18:54:00,
2015-01-29 12:59:00,40.5,29.3,30.10,WNW,290,11.0,17.0,64,0.00,,,0.00,Wunderground v.1.15,2015-01-29 18:59:00,
2015-01-29 13:04:00,40.5,29.3,30.10,WNW,300,3.0,10.0,64,0.00,,,0.00,Wunderground v.1.15,2015-01-29 19:04:00,
2015-01-29 13:09:00,40.5,29.3,30.10,WNW,290,5.0,14.0,64,0.00,,,0.00,Wunderground v.1.15,2015-01-29 19:09:00,
2015-01-29 13:14:00,40.5,28.9,30.11,NW,317,5.0,13.0,63,0.00,,,0.00,Wunderground v.1.15,2015-01-29 19:14:00,
2015-01-29 13:19:00,40.5,29.3,30.11,NW,319,16.0,16.0,64,0.00,,,0.00,Wunderground v.1.15,2015-01-29 19:19:00,
2015-01-29 13:25:00,40.5,29.3,30.11,NW,314,6.0,16.0,64,0.00,,,0.00,Wunderground v.1.15,2015-01-29 19:25:00,
2015-01-29 13:30:00,40.5,29.3,30.11,NNW,330,9.0,11.0,64,0.00,,,0.00,Wunderground v.1.15,2015-01-29 19:30:00,
2015-01-29 13:35:00,40.5,29.7,30.11,NW,321,5.0,14.0,65,0.00,,,0.00,Wunderground v.1.15,2015-01-29 19:35:00,
2015-01-29 13:40:00,40.5,29.7,30.11,NW,306,9.0,9.0,65,0.00,,,0.00,Wunderground v.1.15,2015-01-29 19:40:00,
2015-01-29 13:45:00,40.3,29.5,30.11,WNW,287,4.0,16.0,65,0.00,,,0.00,Wunderground v.1.15,2015-01-29 19:45:00,
2015-01-29 13:50:00,40.3,29.8,30.11,WNW,295,10.0,13.0,66,0.00,,,0.00,Wunderground v.1.15,2015-01-29 19:50:00,
2015-01-29 13:55:00,40.3,29.8,30.11,NW,320,10.0,15.0,66,0.00,,,0.00,Wunderground v.1.15,2015-01-29 19:55:00,
2015-01-29 14:00:00,40.3,29.8,30.11,WNW,299,6.0,11.0,66,0.00,,,0.00,Wunderground v.1.15,2015-01-29 20:00:00,
2015-01-29 14:05:00,40.5,30.0,30.11,NW,315,7.0,17.0,66,0.00,,,0.00,Wunderground v.1.15,2015-01-29 20:05:00,
2015-01-29 14:10:00,40.6,30.1,30.12,WNW,296,3.0,6.0,66,0.00,,,0.00,Wunderground v.1.15,2015-01-29 20:10:00,
2015-01-29 14:15:00,40.6,29.7,30.12,WNW,289,7.0,13.0,65,0.00,,,0.00,Wunderground v.1.15,2015-01-29 20:15:00,
2015-01-29 14:20:00,40.8,29.9,30.12,WNW,298,5.0,6.0,65,0.00,,,0.00,Wunderground v.1.15,2015-01-29 20:20:00,
2015-01-29 14:25:00,40.8,29.9,30.13,West,279,3.0,11.0,65,0.00,,,0.00,Wunderground v.1.15,2015-01-29 20:25:00,
2015-01-29 14:30:00,40.9,30.0,30.13,WNW,282,6.0,11.0,65,0.00,,,0.00,Wunderground v.1.15,2015-01-29 20:30:00,
2015-01-29 14:35:00,40.8,29.6,30.13,NW,325,3.0,15.0,64,0.00,,,0.00,Wunderground v.1.15,2015-01-29 20:35:00,
2015-01-29 14:40:00,40.8,29.6,30.14,WNW,289,10.0,13.0,64,0.00,,,0.00,Wunderground v.1.15,2015-01-29 20:40:00,
2015-01-29 14:45:00,40.8,29.6,30.14,West,281,8.0,18.0,64,0.00,,,0.00,Wunderground v.1.15,2015-01-29 20:45:00,